Wetterdaten: Donnerstag, 10.12.2009
Datum Zeit Temp. a Sch. Temp. a Son. Temp. a Bod. Feuchte a. Luftdruck Regen Wind Richtung Richtung Sonnenschein Helligkeit Taupunkt Windchill
10.12.2009 00:00 5,2 C 5,9 C 4,7 C 95 % 1025 hPa 0,0 l/m 0,8 m/s (1 Bft) S-SO 155 0 min 0 lux 4,5 C 5,2 C
10.12.2009 00:05 5,2 C 5,9 C 4,7 C 95 % 1025 hPa 0,0 l/m 0,8 m/s (1 Bft) S-SO 155 0 min 0 lux 4,5 C 5,2 C
10.12.2009 00:11 5,2 C 5,9 C 4,7 C 95 % 1025 hPa 0,0 l/m 0,4 m/s (1 Bft) S-SO 155 0 min 0 lux 4,5 C 5,2 C
10.12.2009 00:16 5,3 C 6,0 C 4,7 C 95 % 1025 hPa 0,0 l/m 0,2 m/s (0 Bft) S-SO22.5 165 0 min 0 lux 4,6 C 5,3 C
10.12.2009 00:20 5,3 C 6,0 C 4,8 C 95 % 1025 hPa 0,0 l/m 0,3 m/s (1 Bft) S-SW 195 0 min 0 lux 4,6 C 5,3 C
10.12.2009 00:25 5,4 C 6,0 C 4,8 C 95 % 1025 hPa 0,0 l/m 0,0 m/s (0 Bft) S-SW 195 0 min 0 lux 4,7 C 5,4 C
10.12.2009 00:30 5,4 C 6,0 C 4,8 C 95 % 1024 hPa 0,0 l/m 0,0 m/s (0 Bft) S-SW 195 0 min 0 lux 4,7 C 5,4 C
10.12.2009 00:35 5,4 C 6,0 C 4,8 C 95 % 1024 hPa 0,0 l/m 0,0 m/s (0 Bft) S-SW 195 0 min 0 lux 4,7 C 5,4 C
10.12.2009 00:40 5,4 C 6,0 C 4,8 C 95 % 1024 hPa 0,0 l/m 0,0 m/s (0 Bft) S-SW 195 0 min 0 lux 4,7 C 5,4 C
10.12.2009 00:45 5,4 C 6,1 C 4,8 C 95 % 1024 hPa 0,0 l/m 0,8 m/s (1 Bft) S-SW 195 0 min 0 lux 4,7 C 5,4 C
10.12.2009 00:50 5,4 C 6,0 C 4,8 C 95 % 1024 hPa 0,4 l/m 0,0 m/s (0 Bft) S-SW 195 0 min 0 lux 4,7 C 5,4 C
10.12.2009 00:55 5,4 C 6,0 C 4,8 C 96 % 1024 hPa 0,0 l/m 0,0 m/s (0 Bft) S-SW 195 0 min 0 lux 4,8 C 5,4 C
10.12.2009 01:01 5,3 C 6,1 C 4,8 C 96 % 1024 hPa 0,4 l/m 1,2 m/s (1 Bft) S-SW 195 0 min 0 lux 4,7 C 5,3 C
10.12.2009 01:05 5,3 C 6,1 C 4,8 C 96 % 1024 hPa 0,0 l/m 0,3 m/s (0 Bft) S-SW 195 0 min 0 lux 4,7 C 5,3 C
10.12.2009 01:10 5,2 C 6,0 C 4,8 C 96 % 1024 hPa 0,0 l/m 1,6 m/s (1 Bft) O 100 0 min 0 lux 4,6 C 5,2 C
10.12.2009 01:15 5,2 C 6,0 C 4,8 C 96 % 1024 hPa 0,0 l/m 1,8 m/s (2 Bft) O-SO22.5 105 0 min 0 lux 4,6 C 5,1 C
10.12.2009 01:20 5,2 C 6,0 C 4,8 C 96 % 1024 hPa 0,0 l/m 2,5 m/s (2 Bft) SO22.5 125 0 min 0 lux 4,6 C 2,9 C
10.12.2009 01:25 5,2 C 6,0 C 4,8 C 96 % 1024 hPa 0,0 l/m 1,9 m/s (2 Bft) SO22.5 135 0 min 0 lux 4,6 C 4,7 C
10.12.2009 01:30 5,2 C 6,0 C 4,8 C 96 % 1024 hPa 0,0 l/m 2,1 m/s (2 Bft) O-SO45 120 0 min 0 lux 4,6 C 4,3 C
10.12.2009 01:35 5,1 C 6,0 C 4,8 C 96 % 1024 hPa 0,0 l/m 1,4 m/s (1 Bft) O 100 0 min 0 lux 4,5 C 5,1 C
10.12.2009 01:40 5,1 C 6,0 C 4,8 C 97 % 1024 hPa 0,0 l/m 1,4 m/s (1 Bft) O 100 0 min 0 lux 4,7 C 5,1 C
10.12.2009 01:45 5,1 C 6,0 C 4,8 C 97 % 1024 hPa 0,0 l/m 1,3 m/s (1 Bft) O-SO 115 0 min 0 lux 4,7 C 5,1 C
10.12.2009 01:51 5,1 C 6,0 C 4,8 C 97 % 1024 hPa 0,0 l/m 0,9 m/s (1 Bft) O-SO 115 0 min 0 lux 4,7 C 5,1 C
10.12.2009 01:55 5,1 C 6,0 C 4,7 C 97 % 1023 hPa 0,0 l/m 1,8 m/s (2 Bft) O 100 0 min 0 lux 4,7 C 5,0 C
10.12.2009 02:00 4,9 C 5,9 C 4,8 C 97 % 1023 hPa 0,0 l/m 1,9 m/s (2 Bft) O22.5 80 0 min 0 lux 4,5 C 4,6 C
10.12.2009 02:05 4,9 C 5,9 C 4,8 C 97 % 1023 hPa 0,4 l/m 1,8 m/s (2 Bft) O 95 0 min 0 lux 4,5 C 4,9 C
10.12.2009 02:10 4,9 C 5,9 C 4,7 C 97 % 1023 hPa 0,0 l/m 0,0 m/s (0 Bft) O 100 0 min 0 lux 4,5 C 4,9 C
10.12.2009 02:15 4,9 C 5,9 C 4,7 C 97 % 1023 hPa 0,0 l/m 0,1 m/s (0 Bft) O 100 0 min 0 lux 4,5 C 4,9 C
10.12.2009 02:20 4,9 C 5,9 C 4,7 C 97 % 1023 hPa 0,0 l/m 1,2 m/s (1 Bft) O 100 0 min 0 lux 4,5 C 4,9 C
10.12.2009 02:25 4,9 C 5,8 C 4,7 C 97 % 1023 hPa 0,0 l/m 0,2 m/s (0 Bft) O 100 0 min 0 lux 4,5 C 4,9 C
10.12.2009 02:30 4,8 C 5,9 C 4,7 C 97 % 1023 hPa 0,0 l/m 0,3 m/s (1 Bft) O 100 0 min 0 lux 4,4 C 4,8 C
10.12.2009 02:35 4,8 C 5,8 C 4,7 C 97 % 1023 hPa 0,0 l/m 0,0 m/s (0 Bft) O 100 0 min 0 lux 4,4 C 4,8 C
10.12.2009 02:40 4,7 C 5,8 C 4,7 C 97 % 1023 hPa 0,0 l/m 0,1 m/s (0 Bft) O 100 0 min 0 lux 4,3 C 4,7 C
10.12.2009 02:45 4,7 C 5,7 C 4,7 C 97 % 1023 hPa 0,0 l/m 0,0 m/s (0 Bft) O 100 0 min 0 lux 4,3 C 4,7 C
10.12.2009 02:50 4,7 C 5,8 C 4,7 C 97 % 1023 hPa 0,0 l/m 1,4 m/s (1 Bft) O-NO22.5 75 0 min 0 lux 4,3 C 4,7 C
10.12.2009 02:55 4,7 C 5,7 C 4,7 C 97 % 1023 hPa 0,0 l/m 1,4 m/s (1 Bft) O22.5 95 0 min 0 lux 4,3 C 4,7 C
10.12.2009 03:00 4,7 C 5,7 C 4,7 C 97 % 1023 hPa 0,0 l/m 1,4 m/s (1 Bft) O22.5 90 0 min 0 lux 4,3 C 4,7 C
10.12.2009 03:05 4,7 C 5,7 C 4,7 C 97 % 1023 hPa 0,0 l/m 1,6 m/s (1 Bft) O 85 0 min 0 lux 4,3 C 4,7 C
10.12.2009 03:10 4,7 C 5,7 C 4,6 C 97 % 1023 hPa 0,0 l/m 2,4 m/s (2 Bft) O 85 0 min 0 lux 4,3 C 2,6 C
10.12.2009 03:15 4,6 C 5,7 C 4,6 C 97 % 1023 hPa 0,4 l/m 1,6 m/s (2 Bft) O 90 0 min 0 lux 4,2 C 4,6 C
10.12.2009 03:20 4,6 C 5,6 C 4,6 C 97 % 1023 hPa 0,0 l/m 1,2 m/s (1 Bft) O 90 0 min 0 lux 4,2 C 4,6 C
10.12.2009 03:25 4,6 C 5,6 C 4,6 C 97 % 1023 hPa 0,0 l/m 1,5 m/s (1 Bft) O-NO22.5 75 0 min 0 lux 4,2 C 4,6 C
10.12.2009 03:30 4,6 C 5,6 C 4,6 C 97 % 1023 hPa 0,0 l/m 1,9 m/s (2 Bft) O 95 0 min 0 lux 4,2 C 4,3 C
10.12.2009 03:35 4,6 C 5,6 C 4,6 C 97 % 1022 hPa 0,0 l/m 1,5 m/s (1 Bft) O22.5 90 0 min 0 lux 4,2 C 4,6 C
10.12.2009 03:40 4,5 C 5,6 C 4,6 C 97 % 1022 hPa 0,0 l/m 1,4 m/s (1 Bft) O45 90 0 min 0 lux 4,1 C 4,5 C
10.12.2009 03:45 4,5 C 5,5 C 4,6 C 97 % 1022 hPa 0,0 l/m 1,3 m/s (1 Bft) O22.5 100 0 min 0 lux 4,1 C 4,5 C
10.12.2009 03:51 4,5 C 5,5 C 4,5 C 97 % 1022 hPa 0,0 l/m 1,9 m/s (2 Bft) O-SO 115 0 min 0 lux 4,1 C 4,2 C
10.12.2009 03:56 4,5 C 5,5 C 4,5 C 97 % 1022 hPa 0,0 l/m 1,6 m/s (1 Bft) O22.5 90 0 min 0 lux 4,1 C 4,5 C
10.12.2009 04:01 4,5 C 5,5 C 4,6 C 97 % 1022 hPa 0,0 l/m 0,0 m/s (0 Bft) O 90 0 min 0 lux 4,1 C 4,5 C
10.12.2009 04:06 4,6 C 5,5 C 4,6 C 97 % 1022 hPa 0,0 l/m 0,8 m/s (1 Bft) O-SO22.5 110 0 min 0 lux 4,2 C 4,6 C
10.12.2009 04:11 4,6 C 5,5 C 4,5 C 97 % 1022 hPa 0,7 l/m 1,3 m/s (1 Bft) O-SO 105 0 min 0 lux 4,2 C 4,6 C
10.12.2009 04:16 4,5 C 5,6 C 4,5 C 97 % 1022 hPa 0,0 l/m 1,2 m/s (1 Bft) O 95 0 min 0 lux 4,1 C 4,5 C
10.12.2009 04:21 4,5 C 5,5 C 4,5 C 97 % 1022 hPa 1,1 l/m 1,2 m/s (1 Bft) O-SO 105 0 min 0 lux 4,1 C 4,5 C
10.12.2009 04:26 4,6 C 5,6 C 4,5 C 97 % 1022 hPa 0,0 l/m 1,4 m/s (1 Bft) O-SO 105 0 min 0 lux 4,2 C 4,6 C
10.12.2009 04:31 4,6 C 5,6 C 4,5 C 97 % 1021 hPa 0,4 l/m 0,1 m/s (0 Bft) O-SO 105 0 min 0 lux 4,2 C 4,6 C
10.12.2009 04:36 4,6 C 5,6 C 4,5 C 97 % 1021 hPa 0,0 l/m 2,3 m/s (2 Bft) O22.5 90 0 min 0 lux 4,2 C 3,0 C
10.12.2009 04:41 4,6 C 5,6 C 4,5 C 97 % 1021 hPa 0,0 l/m 0,0 m/s (0 Bft) O 95 0 min 0 lux 4,2 C 4,6 C
10.12.2009 04:46 4,7 C 5,6 C 4,5 C 97 % 1021 hPa 0,7 l/m 0,1 m/s (0 Bft) O 95 0 min 0 lux 4,3 C 4,7 C
10.12.2009 04:51 4,7 C 5,6 C 4,5 C 97 % 1021 hPa 0,4 l/m 1,3 m/s (1 Bft) O 95 0 min 0 lux 4,3 C 4,7 C
10.12.2009 04:56 4,7 C 5,6 C 4,5 C 97 % 1021 hPa 0,0 l/m 1,2 m/s (1 Bft) O 95 0 min 0 lux 4,3 C 4,7 C
10.12.2009 05:01 4,7 C 5,6 C 4,5 C 97 % 1021 hPa 0,0 l/m 0,9 m/s (1 Bft) O 95 0 min 0 lux 4,3 C 4,7 C
10.12.2009 05:06 4,7 C 5,6 C 4,5 C 97 % 1021 hPa 0,7 l/m 0,6 m/s (1 Bft) O 95 0 min 0 lux 4,3 C 4,7 C
10.12.2009 05:11 4,7 C 5,6 C 4,5 C 97 % 1021 hPa 0,4 l/m 0,9 m/s (1 Bft) O 100 0 min 0 lux 4,3 C 4,7 C
10.12.2009 05:16 4,7 C 5,6 C 4,5 C 97 % 1021 hPa 0,4 l/m 0,0 m/s (0 Bft) O 100 0 min 0 lux 4,3 C 4,7 C
10.12.2009 05:21 4,7 C 5,7 C 4,5 C 97 % 1021 hPa 0,7 l/m 0,0 m/s (0 Bft) O 95 0 min 0 lux 4,3 C 4,7 C
10.12.2009 05:26 4,7 C 5,7 C 4,5 C 97 % 1021 hPa 0,0 l/m 0,0 m/s (0 Bft) O 95 0 min 0 lux 4,3 C 4,7 C
10.12.2009 05:31 4,7 C 5,7 C 4,6 C 97 % 1021 hPa 0,4 l/m 0,0 m/s (0 Bft) O 95 0 min 0 lux 4,3 C 4,7 C
10.12.2009 05:36 4,7 C 5,7 C 4,5 C 97 % 1021 hPa 0,4 l/m 0,0 m/s (0 Bft) O 95 0 min 0 lux 4,3 C 4,7 C
10.12.2009 05:40 4,8 C 5,7 C 4,6 C 97 % 1021 hPa 0,4 l/m 0,0 m/s (0 Bft) O 95 0 min 0 lux 4,4 C 4,8 C
10.12.2009 05:45 4,8 C 5,7 C 4,6 C 97 % 1021 hPa 0,7 l/m 0,0 m/s (0 Bft) O 95 0 min 0 lux 4,4 C 4,8 C
10.12.2009 05:50 4,8 C 5,7 C 4,5 C 97 % 1021 hPa 0,7 l/m 0,0 m/s (0 Bft) O 95 0 min 0 lux 4,4 C 4,8 C
10.12.2009 05:55 4,8 C 5,7 C 4,5 C 97 % 1020 hPa 0,0 l/m 0,0 m/s (0 Bft) O 95 0 min 0 lux 4,4 C 4,8 C
10.12.2009 06:00 4,8 C 5,7 C 4,6 C 97 % 1020 hPa 0,4 l/m 0,0 m/s (0 Bft) O 95 0 min 0 lux 4,4 C 4,8 C
10.12.2009 06:05 4,8 C 5,7 C 4,6 C 97 % 1020 hPa 0,4 l/m 0,7 m/s (1 Bft) O 95 0 min 0 lux 4,4 C 4,8 C
10.12.2009 06:10 4,8 C 5,7 C 4,6 C 97 % 1020 hPa 0,7 l/m 0,2 m/s (0 Bft) O 100 0 min 0 lux 4,4 C 4,8 C
10.12.2009 06:15 4,9 C 5,7 C 4,6 C 98 % 1020 hPa 0,0 l/m 0,0 m/s (0 Bft) O 100 0 min 0 lux 4,6 C 4,9 C
10.12.2009 06:20 4,9 C 5,8 C 4,6 C 97 % 1020 hPa 0,7 l/m 0,0 m/s (0 Bft) O 100 0 min 0 lux 4,5 C 4,9 C
10.12.2009 06:25 4,9 C 5,8 C 4,6 C 97 % 1020 hPa 0,4 l/m 0,0 m/s (0 Bft) SO 130 0 min 0 lux 4,5 C 4,9 C
10.12.2009 06:30 4,9 C 5,8 C 4,6 C 97 % 1020 hPa 0,0 l/m 0,0 m/s (0 Bft) SO 130 0 min 0 lux 4,5 C 4,9 C
10.12.2009 06:35 4,9 C 5,8 C 4,6 C 97 % 1020 hPa 0,0 l/m 0,0 m/s (0 Bft) SO 130 0 min 0 lux 4,5 C 4,9 C
10.12.2009 06:40 5,1 C 5,8 C 4,6 C 97 % 1020 hPa 0,4 l/m 0,0 m/s (0 Bft) SO 130 0 min 0 lux 4,7 C 5,1 C
10.12.2009 06:45 5,1 C 5,8 C 4,6 C 97 % 1020 hPa 0,0 l/m 0,0 m/s (0 Bft) SO 130 0 min 0 lux 4,7 C 5,1 C
10.12.2009 06:50 5,1 C 5,9 C 4,6 C 97 % 1020 hPa 0,4 l/m 0,0 m/s (0 Bft) SO 130 0 min 0 lux 4,7 C 5,1 C
10.12.2009 06:55 5,1 C 5,9 C 4,6 C 97 % 1020 hPa 0,0 l/m 0,0 m/s (0 Bft) SO 130 0 min 0 lux 4,7 C 5,1 C
10.12.2009 07:00 5,1 C 5,9 C 4,6 C 97 % 1020 hPa 0,0 l/m 0,0 m/s (0 Bft) SO 130 0 min 0 lux 4,7 C 5,1 C
10.12.2009 07:05 4,9 C 5,8 C 4,6 C 97 % 1020 hPa 0,0 l/m 0,0 m/s (0 Bft) SO 130 0 min 0 lux 4,5 C 4,9 C
10.12.2009 07:10 4,9 C 5,9 C 4,6 C 97 % 1020 hPa 0,0 l/m 0,0 m/s (0 Bft) SO 130 0 min 0 lux 4,5 C 4,9 C
10.12.2009 07:15 4,9 C 5,9 C 4,6 C 98 % 1020 hPa 0,0 l/m 1,1 m/s (1 Bft) SO 130 0 min 0 lux 4,6 C 4,9 C
10.12.2009 07:20 4,9 C 5,9 C 4,6 C 98 % 1020 hPa 0,0 l/m 1,1 m/s (1 Bft) SO 130 0 min 0 lux 4,6 C 4,9 C
10.12.2009 07:25 4,9 C 5,8 C 4,7 C 98 % 1020 hPa 0,0 l/m 1,0 m/s (1 Bft) SO 130 0 min 0 lux 4,6 C 4,9 C
10.12.2009 07:30 5,1 C 5,9 C 4,7 C 98 % 1020 hPa 0,0 l/m 0,0 m/s (0 Bft) SO 130 0 min 0 lux 4,8 C 5,1 C
10.12.2009 07:35 5,2 C 5,9 C 4,7 C 98 % 1020 hPa 0,0 l/m 0,0 m/s (0 Bft) SO 130 0 min 0 lux 4,9 C 5,2 C
10.12.2009 07:40 5,2 C 6,0 C 4,7 C 98 % 1020 hPa 0,0 l/m 0,1 m/s (0 Bft) SO 135 0 min 0 lux 4,9 C 5,2 C
10.12.2009 07:45 5,3 C 6,0 C 4,7 C 98 % 1020 hPa 0,0 l/m 0,0 m/s (0 Bft) SO 135 0 min 0 lux 5,0 C 5,3 C
10.12.2009 07:50 5,4 C 6,0 C 4,8 C 98 % 1020 hPa 0,0 l/m 0,0 m/s (0 Bft) SO 135 0 min 0 lux 5,1 C 5,4 C
10.12.2009 07:55 5,4 C 6,0 C 4,8 C 98 % 1020 hPa 0,0 l/m 0,0 m/s (0 Bft) SO 135 0 min 0 lux 5,1 C 5,4 C
10.12.2009 08:00 5,5 C 6,1 C 4,8 C 98 % 1020 hPa 0,4 l/m 1,9 m/s (2 Bft) O45 80 0 min 0 lux 5,2 C 5,0 C
10.12.2009 08:05 5,6 C 6,1 C 4,8 C 98 % 1020 hPa 0,0 l/m 0,0 m/s (0 Bft) O-NO 60 0 min 0 lux 5,3 C 5,6 C
10.12.2009 08:10 5,6 C 6,1 C 4,8 C 98 % 1020 hPa 0,0 l/m 0,0 m/s (0 Bft) O-NO 60 0 min 48 lux 5,3 C 5,6 C
10.12.2009 08:15 5,6 C 6,1 C 4,8 C 98 % 1020 hPa 0,0 l/m 0,1 m/s (0 Bft) O-NO 60 0 min 52 lux 5,3 C 5,6 C
10.12.2009 08:20 5,6 C 6,2 C 4,9 C 98 % 1020 hPa 0,0 l/m 0,0 m/s (0 Bft) SO 125 0 min 52 lux 5,3 C 5,6 C
10.12.2009 08:25 5,6 C 6,2 C 4,9 C 98 % 1020 hPa 0,0 l/m 0,0 m/s (0 Bft) SO 125 0 min 225 lux 5,3 C 5,6 C
10.12.2009 08:30 5,7 C 6,2 C 4,9 C 98 % 1020 hPa 0,0 l/m 0,0 m/s (0 Bft) SO 130 0 min 454 lux 5,4 C 5,7 C
10.12.2009 08:35 5,7 C 6,2 C 4,9 C 98 % 1020 hPa 0,0 l/m 0,0 m/s (0 Bft) SO 130 0 min 546 lux 5,4 C 5,7 C
10.12.2009 08:40 5,8 C 6,3 C 5,0 C 98 % 1020 hPa 0,0 l/m 0,0 m/s (0 Bft) SO 130 0 min 475 lux 5,5 C 5,8 C
10.12.2009 08:45 5,8 C 6,3 C 5,0 C 98 % 1020 hPa 0,0 l/m 0,0 m/s (0 Bft) SO 130 0 min 410 lux 5,5 C 5,8 C
10.12.2009 08:50 5,9 C 6,3 C 5,0 C 98 % 1020 hPa 0,0 l/m 0,0 m/s (0 Bft) SO 130 0 min 661 lux 5,6 C 5,9 C
10.12.2009 08:55 6,0 C 6,3 C 5,0 C 98 % 1019 hPa 0,0 l/m 0,0 m/s (0 Bft) SO 130 0 min 2,36 klux 5,7 C 6,0 C
10.12.2009 09:00 6,0 C 6,5 C 5,0 C 98 % 1019 hPa 0,0 l/m 0,0 m/s (0 Bft) SO 130 0 min 2,46 klux 5,7 C 6,0 C
10.12.2009 09:05 6,1 C 6,5 C 5,1 C 97 % 1019 hPa 0,0 l/m 0,0 m/s (0 Bft) SO 130 0 min 5,13 klux 5,7 C 6,1 C
10.12.2009 09:10 6,1 C 6,6 C 5,1 C 97 % 1020 hPa 0,0 l/m 0,0 m/s (0 Bft) SO 130 0 min 3,97 klux 5,7 C 6,1 C
10.12.2009 09:15 6,1 C 6,6 C 5,1 C 97 % 1020 hPa 0,0 l/m 1,0 m/s (1 Bft) S-SW 195 0 min 3,80 klux 5,7 C 6,1 C
10.12.2009 09:20 6,1 C 6,6 C 5,1 C 97 % 1020 hPa 0,0 l/m 1,1 m/s (1 Bft) S-SW 210 0 min 1,47 klux 5,7 C 6,1 C
10.12.2009 09:25 6,1 C 6,7 C 5,2 C 97 % 1020 hPa 0,0 l/m 1,4 m/s (1 Bft) SW22.5 220 0 min 2,25 klux 5,7 C 6,1 C
10.12.2009 09:30 6,3 C 6,7 C 5,2 C 98 % 1020 hPa 0,0 l/m 0,1 m/s (0 Bft) SW 230 0 min 1,35 klux 6,0 C 6,3 C
10.12.2009 09:35 6,4 C 6,7 C 5,3 C 98 % 1020 hPa 0,0 l/m 1,2 m/s (1 Bft) SW 230 0 min 4,12 klux 6,1 C 6,4 C
10.12.2009 09:40 6,4 C 6,8 C 5,5 C 98 % 1020 hPa 0,4 l/m 1,7 m/s (2 Bft) W-SW22.5 250 0 min 9,1 klux 6,1 C 6,4 C
10.12.2009 09:45 6,8 C 7,0 C 5,6 C 98 % 1020 hPa 0,0 l/m 3,1 m/s (2 Bft) W-SW22.5 250 0 min 7,64 klux 6,5 C 3,4 C
10.12.2009 09:50 7,2 C 7,2 C 5,6 C 98 % 1020 hPa 0,0 l/m 2,9 m/s (2 Bft) W-SW22.5 250 0 min 5,49 klux 6,9 C 4,1 C
10.12.2009 09:55 7,4 C 7,3 C 5,8 C 97 % 1020 hPa 0,0 l/m 4,2 m/s (3 Bft) W-SW22.5 245 0 min 6,75 klux 7,0 C 2,0 C
10.12.2009 10:00 7,5 C 7,4 C 5,8 C 97 % 1020 hPa 0,0 l/m 3,9 m/s (3 Bft) W-SW22.5 240 0 min 3,72 klux 7,1 C 2,6 C
10.12.2009 10:05 7,6 C 7,6 C 5,9 C 97 % 1020 hPa 0,0 l/m 3,3 m/s (2 Bft) W-SW45 250 0 min 3,63 klux 7,2 C 3,8 C
10.12.2009 10:11 7,6 C 7,6 C 6,0 C 96 % 1020 hPa 0,0 l/m 3,6 m/s (3 Bft) W-SW22.5 250 0 min 2,74 klux 7,0 C 3,3 C
10.12.2009 10:16 7,6 C 7,7 C 6,1 C 96 % 1020 hPa 0,0 l/m 3,8 m/s (3 Bft) W-SW22.5 245 0 min 4,38 klux 7,0 C 2,8 C
10.12.2009 10:21 7,8 C 7,8 C 6,1 C 95 % 1020 hPa 0,0 l/m 3,0 m/s (2 Bft) W-SW22.5 245 0 min 5,58 klux 7,0 C 4,6 C
10.12.2009 10:26 7,8 C 8,0 C 6,1 C 95 % 1020 hPa 0,0 l/m 2,9 m/s (2 Bft) SW22.5 235 0 min 4,53 klux 7,0 C 4,8 C
10.12.2009 10:31 7,8 C 8,0 C 6,2 C 95 % 1020 hPa 0,0 l/m 4,4 m/s (3 Bft) W-SW22.5 250 0 min 5,22 klux 7,0 C 2,0 C
10.12.2009 10:36 7,9 C 8,1 C 6,3 C 95 % 1020 hPa 0,0 l/m 3,0 m/s (2 Bft) W-SW22.5 240 0 min 4,40 klux 7,1 C 4,8 C
10.12.2009 10:41 7,9 C 8,2 C 6,3 C 95 % 1020 hPa 0,0 l/m 3,9 m/s (3 Bft) W-SW22.5 245 0 min 6,22 klux 7,1 C 3,1 C
10.12.2009 10:46 8,0 C 8,2 C 6,5 C 95 % 1020 hPa 0,0 l/m 3,2 m/s (2 Bft) W-SW22.5 255 0 min 5,98 klux 7,2 C 4,5 C
10.12.2009 10:51 8,0 C 8,2 C 6,5 C 95 % 1020 hPa 0,0 l/m 3,5 m/s (3 Bft) W-SW22.5 245 0 min 6,17 klux 7,2 C 3,9 C
10.12.2009 10:55 8,0 C 8,3 C 6,6 C 95 % 1020 hPa 0,4 l/m 4,5 m/s (3 Bft) W-SW45 240 0 min 5,18 klux 7,2 C 2,2 C
10.12.2009 11:00 8,1 C 8,4 C 6,6 C 95 % 1020 hPa 0,0 l/m 6,0 m/s (4 Bft) W-SW22.5 250 0 min 4,02 klux 7,3 C 0,3 C
10.12.2009 11:05 8,1 C 8,4 C 6,7 C 95 % 1020 hPa 0,0 l/m 3,2 m/s (2 Bft) W-SW22.5 250 0 min 7,44 klux 7,3 C 4,5 C
10.12.2009 11:10 8,3 C 8,5 C 6,7 C 95 % 1020 hPa 0,0 l/m 3,3 m/s (2 Bft) W-SW22.5 250 0 min 9,9 klux 7,5 C 4,6 C
10.12.2009 11:15 8,3 C 8,6 C 6,8 C 94 % 1020 hPa 0,0 l/m 4,6 m/s (3 Bft) W-SW45 250 0 min 10,1 klux 7,4 C 2,4 C
10.12.2009 11:20 8,3 C 8,6 C 6,8 C 94 % 1020 hPa 0,4 l/m 3,2 m/s (2 Bft) W45 260 0 min 3,15 klux 7,4 C 4,8 C
10.12.2009 11:25 8,2 C 8,6 C 6,8 C 94 % 1020 hPa 0,4 l/m 3,3 m/s (2 Bft) W-SW22.5 240 0 min 3,07 klux 7,3 C 4,4 C
10.12.2009 11:31 8,2 C 8,6 C 6,8 C 94 % 1020 hPa 0,4 l/m 4,7 m/s (3 Bft) W-SW22.5 250 0 min 4,88 klux 7,3 C 2,1 C
10.12.2009 11:36 8,1 C 8,6 C 6,8 C 94 % 1020 hPa 0,0 l/m 3,4 m/s (2 Bft) W-SW22.5 245 0 min 4,62 klux 7,2 C 4,3 C
10.12.2009 11:40 8,1 C 8,6 C 6,8 C 93 % 1020 hPa 0,0 l/m 3,8 m/s (3 Bft) W-SW45 255 0 min 5,25 klux 7,0 C 3,4 C
10.12.2009 11:45 8,0 C 8,6 C 6,8 C 94 % 1020 hPa 0,4 l/m 3,5 m/s (3 Bft) W-SW45 250 0 min 4,83 klux 7,1 C 3,8 C
10.12.2009 11:50 8,0 C 8,6 C 6,8 C 95 % 1020 hPa 0,0 l/m 4,1 m/s (3 Bft) W-SW45 245 0 min 1,86 klux 7,2 C 2,8 C
10.12.2009 11:55 8,0 C 8,5 C 6,9 C 95 % 1020 hPa 0,0 l/m 4,8 m/s (3 Bft) W-SW22.5 250 0 min 3,31 klux 7,2 C 1,7 C
10.12.2009 12:00 8,1 C 8,6 C 6,9 C 94 % 1020 hPa 0,0 l/m 4,7 m/s (3 Bft) W-SW45 250 0 min 10,2 klux 7,2 C 2,0 C
10.12.2009 12:05 8,2 C 8,6 C 7,0 C 94 % 1020 hPa 0,4 l/m 3,2 m/s (2 Bft) W-SW22.5 250 0 min 10,6 klux 7,3 C 4,7 C
10.12.2009 12:10 8,3 C 8,7 C 7,0 C 94 % 1020 hPa 0,0 l/m 4,4 m/s (3 Bft) W-SW45 255 0 min 13,7 klux 7,4 C 2,6 C
10.12.2009 12:16 8,5 C 8,8 C 7,1 C 92 % 1020 hPa 0,0 l/m 4,9 m/s (3 Bft) W67.5 260 0 min 12,1 klux 7,3 C 2,3 C
10.12.2009 12:21 8,6 C 9,0 C 7,1 C 91 % 1019 hPa 0,0 l/m 5,3 m/s (3 Bft) W-SW22.5 250 0 min 5,38 klux 7,2 C 1,8 C
10.12.2009 12:26 8,6 C 9,0 C 7,1 C 92 % 1019 hPa 0,0 l/m 5,4 m/s (3 Bft) W22.5 260 0 min 5,13 klux 7,4 C 1,6 C
10.12.2009 12:30 8,5 C 9,0 C 7,2 C 92 % 1020 hPa 0,0 l/m 4,6 m/s (3 Bft) W-SW22.5 250 0 min 4,31 klux 7,3 C 2,7 C
10.12.2009 12:35 8,4 C 8,8 C 7,1 C 92 % 1020 hPa 0,4 l/m 5,7 m/s (4 Bft) W-SW22.5 250 0 min 7,17 klux 7,2 C 1,0 C
10.12.2009 12:40 8,2 C 8,7 C 7,1 C 91 % 1020 hPa 0,0 l/m 7,2 m/s (4 Bft) W-SW22.5 250 0 min 5,91 klux 6,8 C -0,9 C
10.12.2009 12:45 8,0 C 8,7 C 7,0 C 91 % 1020 hPa 0,0 l/m 5,6 m/s (4 Bft) W45 260 0 min 2,48 klux 6,6 C 0,6 C
10.12.2009 12:50 8,0 C 8,6 C 7,0 C 92 % 1020 hPa 0,0 l/m 5,6 m/s (4 Bft) W-SW45 250 0 min 2,72 klux 6,8 C 0,7 C
10.12.2009 12:55 7,9 C 8,6 C 7,0 C 93 % 1019 hPa 0,0 l/m 3,5 m/s (3 Bft) W-SW45 245 0 min 1,83 klux 6,8 C 3,8 C
10.12.2009 13:00 7,9 C 8,5 C 7,0 C 93 % 1019 hPa 0,0 l/m 4,9 m/s (3 Bft) W-SW22.5 245 0 min 1,65 klux 6,8 C 1,4 C
10.12.2009 13:05 7,8 C 8,4 C 6,9 C 93 % 1019 hPa 0,0 l/m 8,0 m/s (5 Bft) W-SW45 255 0 min 2,99 klux 6,7 C -2,2 C
10.12.2009 13:10 7,8 C 8,4 C 6,8 C 92 % 1019 hPa 0,0 l/m 8,3 m/s (5 Bft) W-SW45 250 0 min 2,37 klux 6,6 C -2,4 C
10.12.2009 13:15 7,8 C 8,4 C 6,8 C 92 % 1019 hPa 0,0 l/m 5,2 m/s (3 Bft) W-SW45 255 0 min 1,64 klux 6,6 C 1,0 C
10.12.2009 13:20 7,7 C 8,4 C 6,8 C 92 % 1019 hPa 0,0 l/m 6,1 m/s (4 Bft) W-SW22.5 250 0 min 1,97 klux 6,5 C -0,4 C
10.12.2009 13:26 7,7 C 8,3 C 6,8 C 93 % 1019 hPa 0,4 l/m 4,8 m/s (3 Bft) W45 270 0 min 2,61 klux 6,6 C 1,3 C
10.12.2009 13:31 7,7 C 8,3 C 6,8 C 93 % 1019 hPa 0,0 l/m 5,8 m/s (4 Bft) W-SW22.5 255 0 min 2,85 klux 6,6 C 0,1 C
10.12.2009 13:36 7,6 C 8,2 C 6,7 C 92 % 1019 hPa 0,0 l/m 5,8 m/s (4 Bft) W-SW45 250 0 min 3,20 klux 6,4 C -0,1 C
10.12.2009 13:40 7,6 C 8,3 C 6,7 C 92 % 1019 hPa 0,0 l/m 5,8 m/s (4 Bft) W45 270 0 min 3,14 klux 6,4 C -0,2 C
10.12.2009 13:45 7,6 C 8,3 C 6,7 C 92 % 1019 hPa 0,0 l/m 7,6 m/s (4 Bft) W-SW45 255 0 min 4,13 klux 6,4 C -2,0 C
10.12.2009 13:50 7,6 C 8,3 C 6,7 C 92 % 1019 hPa 0,0 l/m 7,5 m/s (4 Bft) W45 260 0 min 2,14 klux 6,4 C -2,0 C
10.12.2009 13:55 7,6 C 8,2 C 6,7 C 91 % 1019 hPa 0,0 l/m 5,8 m/s (4 Bft) W-SW45 255 0 min 1,14 klux 6,2 C -0,1 C
10.12.2009 14:00 7,6 C 8,2 C 6,7 C 92 % 1019 hPa 0,0 l/m 8,2 m/s (5 Bft) W-SW45 245 0 min 1,26 klux 6,4 C -2,6 C
10.12.2009 14:05 7,6 C 8,2 C 6,7 C 92 % 1019 hPa 0,4 l/m 6,1 m/s (4 Bft) W-SW22.5 255 0 min 1,52 klux 6,4 C -0,5 C
10.12.2009 14:10 7,5 C 8,1 C 6,6 C 92 % 1019 hPa 0,4 l/m 8,3 m/s (5 Bft) W22.5 265 0 min 1,36 klux 6,3 C -2,8 C
10.12.2009 14:15 7,5 C 8,0 C 6,6 C 92 % 1019 hPa 0,0 l/m 4,5 m/s (3 Bft) W-SW22.5 255 0 min 1,62 klux 6,3 C 1,6 C
10.12.2009 14:20 7,5 C 8,0 C 6,6 C 92 % 1019 hPa 0,0 l/m 7,9 m/s (4 Bft) W-SW22.5 250 0 min 1,84 klux 6,3 C -2,4 C
10.12.2009 14:25 7,5 C 8,0 C 6,6 C 93 % 1019 hPa 0,4 l/m 7,1 m/s (4 Bft) W-SW45 250 0 min 1,78 klux 6,4 C -1,7 C
10.12.2009 14:30 7,3 C 7,9 C 6,5 C 90 % 1020 hPa 0,0 l/m 8,0 m/s (5 Bft) W45 265 0 min 1,96 klux 5,8 C -2,9 C
10.12.2009 14:35 7,2 C 7,8 C 6,4 C 90 % 1020 hPa 0,4 l/m 6,6 m/s (4 Bft) W-SW45 250 0 min 2,25 klux 5,7 C -1,6 C
10.12.2009 14:40 7,1 C 7,8 C 6,4 C 91 % 1020 hPa 0,4 l/m 6,8 m/s (4 Bft) W-SW67.5 250 0 min 2,41 klux 5,7 C -1,9 C
10.12.2009 14:45 7,0 C 7,7 C 6,3 C 92 % 1020 hPa 0,0 l/m 6,0 m/s (4 Bft) W-SW45 255 0 min 2,13 klux 5,8 C -1,1 C
10.12.2009 14:50 6,8 C 7,6 C 6,3 C 92 % 1020 hPa 0,0 l/m 6,8 m/s (4 Bft) W-SW22.5 245 0 min 1,29 klux 5,6 C -2,3 C
10.12.2009 14:55 6,9 C 7,5 C 6,2 C 92 % 1020 hPa 0,4 l/m 7,2 m/s (4 Bft) W45 275 0 min 828 lux 5,7 C -2,6 C
10.12.2009 15:00 6,8 C 7,5 C 6,2 C 92 % 1020 hPa 0,0 l/m 6,3 m/s (4 Bft) W-SW45 255 0 min 1,37 klux 5,6 C -1,8 C
10.12.2009 15:05 6,8 C 7,5 C 6,2 C 92 % 1020 hPa 0,0 l/m 6,3 m/s (4 Bft) W45 270 0 min 1,43 klux 5,6 C -1,8 C
10.12.2009 15:10 6,9 C 7,4 C 6,2 C 92 % 1020 hPa 0,0 l/m 6,4 m/s (4 Bft) W45 265 0 min 1,67 klux 5,7 C -1,8 C
10.12.2009 15:15 6,9 C 7,4 C 6,2 C 92 % 1020 hPa 0,4 l/m 9,8 m/s (5 Bft) W67.5 260 0 min 4,11 klux 5,7 C -4,9 C
10.12.2009 15:20 6,9 C 7,4 C 6,2 C 92 % 1020 hPa 0,0 l/m 8,8 m/s (5 Bft) W-SW45 255 0 min 3,86 klux 5,7 C -4,1 C
10.12.2009 15:25 6,9 C 7,4 C 6,1 C 92 % 1020 hPa 0,0 l/m 7,4 m/s (4 Bft) W45 270 0 min 2,54 klux 5,7 C -2,8 C
10.12.2009 15:30 6,8 C 7,4 C 6,1 C 92 % 1020 hPa 0,0 l/m 6,8 m/s (4 Bft) W22.5 260 0 min 1,25 klux 5,6 C -2,4 C
10.12.2009 15:35 6,8 C 7,4 C 6,1 C 92 % 1020 hPa 0,0 l/m 4,5 m/s (3 Bft) W22.5 260 0 min 844 lux 5,6 C 0,7 C
10.12.2009 15:40 6,8 C 7,4 C 6,1 C 92 % 1020 hPa 0,0 l/m 8,0 m/s (4 Bft) W22.5 260 0 min 858 lux 5,6 C -3,5 C
10.12.2009 15:45 6,8 C 7,3 C 6,1 C 92 % 1020 hPa 0,0 l/m 6,2 m/s (4 Bft) W22.5 260 0 min 924 lux 5,6 C -1,6 C
10.12.2009 15:50 6,8 C 7,3 C 6,0 C 92 % 1020 hPa 0,0 l/m 8,5 m/s (5 Bft) W45 270 0 min 582 lux 5,6 C -4,0 C
10.12.2009 15:55 6,7 C 7,3 C 6,0 C 92 % 1020 hPa 0,0 l/m 5,6 m/s (4 Bft) W-SW45 255 0 min 669 lux 5,5 C -1,1 C
10.12.2009 16:00 6,6 C 7,2 C 6,0 C 91 % 1020 hPa 0,0 l/m 7,8 m/s (4 Bft) W45 260 0 min 522 lux 5,2 C -3,6 C
10.12.2009 16:05 6,6 C 7,2 C 5,9 C 91 % 1020 hPa 0,0 l/m 8,9 m/s (5 Bft) W-SW45 255 0 min 334 lux 5,2 C -4,6 C
10.12.2009 16:10 6,6 C 7,2 C 5,9 C 92 % 1020 hPa 0,4 l/m 8,3 m/s (5 Bft) W-SW45 255 0 min 229 lux 5,4 C -4,1 C
10.12.2009 16:15 6,6 C 7,1 C 5,9 C 92 % 1020 hPa 0,0 l/m 6,9 m/s (4 Bft) W67.5 265 0 min 217 lux 5,4 C -2,7 C
10.12.2009 16:20 6,5 C 7,1 C 5,9 C 93 % 1020 hPa 0,0 l/m 6,3 m/s (4 Bft) W45 260 0 min 145 lux 5,5 C -2,2 C
10.12.2009 16:25 6,5 C 7,1 C 5,9 C 93 % 1020 hPa 0,0 l/m 5,0 m/s (3 Bft) W45 260 0 min 177 lux 5,5 C -0,5 C
10.12.2009 16:30 6,5 C 7,1 C 5,8 C 92 % 1020 hPa 0,0 l/m 9,3 m/s (5 Bft) W45 260 0 min 139 lux 5,3 C -5,1 C
10.12.2009 16:35 6,5 C 7,0 C 5,8 C 92 % 1020 hPa 0,0 l/m 5,9 m/s (4 Bft) W-SW45 250 0 min 72 lux 5,3 C -1,7 C
10.12.2009 16:40 6,6 C 7,1 C 5,8 C 92 % 1020 hPa 0,0 l/m 7,6 m/s (4 Bft) W22.5 260 0 min 48 lux 5,4 C -3,4 C
10.12.2009 16:45 6,6 C 7,0 C 5,8 C 91 % 1020 hPa 0,0 l/m 6,2 m/s (4 Bft) W45 275 0 min 35 lux 5,2 C -2,0 C
10.12.2009 16:50 6,6 C 7,0 C 5,8 C 91 % 1020 hPa 0,0 l/m 6,0 m/s (4 Bft) W-SW45 250 0 min 11 lux 5,2 C -1,6 C
10.12.2009 16:55 6,5 C 7,0 C 5,7 C 91 % 1020 hPa 0,0 l/m 5,0 m/s (3 Bft) W-SW22.5 255 0 min 6 lux 5,1 C -0,4 C
10.12.2009 17:00 6,5 C 7,0 C 5,7 C 91 % 1020 hPa 0,0 l/m 5,5 m/s (4 Bft) W-SW67.5 250 0 min 0 lux 5,1 C -1,2 C
10.12.2009 17:05 6,5 C 7,0 C 5,7 C 91 % 1020 hPa 0,0 l/m 8,8 m/s (5 Bft) W-SW45 255 0 min 0 lux 5,1 C -4,6 C
10.12.2009 17:10 6,5 C 7,0 C 5,7 C 91 % 1020 hPa 0,0 l/m 7,6 m/s (4 Bft) W-SW45 250 0 min 0 lux 5,1 C -3,6 C
10.12.2009 17:15 6,5 C 7,1 C 5,7 C 90 % 1020 hPa 0,0 l/m 9,1 m/s (5 Bft) W-SW45 255 0 min 0 lux 5,0 C -4,9 C
10.12.2009 17:20 6,6 C 7,1 C 5,7 C 90 % 1020 hPa 0,0 l/m 9,2 m/s (5 Bft) W-SW45 250 0 min 0 lux 5,1 C -4,9 C
10.12.2009 17:25 6,6 C 7,1 C 5,6 C 90 % 1020 hPa 0,0 l/m 6,2 m/s (4 Bft) W45 270 0 min 0 lux 5,1 C -1,9 C
10.12.2009 17:30 6,6 C 7,1 C 5,6 C 90 % 1020 hPa 0,0 l/m 6,4 m/s (4 Bft) W45 265 0 min 0 lux 5,1 C -2,2 C
10.12.2009 17:35 6,5 C 7,1 C 5,6 C 90 % 1020 hPa 0,0 l/m 6,1 m/s (4 Bft) W-SW45 250 0 min 0 lux 5,0 C -2,0 C
10.12.2009 17:40 6,5 C 7,1 C 5,6 C 90 % 1020 hPa 0,0 l/m 5,4 m/s (3 Bft) W-SW45 250 0 min 0 lux 5,0 C -1,0 C
10.12.2009 17:45 6,5 C 7,1 C 5,6 C 90 % 1020 hPa 0,0 l/m 8,3 m/s (5 Bft) W-SW45 255 0 min 0 lux 5,0 C -4,2 C
10.12.2009 17:50 6,5 C 7,1 C 5,6 C 89 % 1020 hPa 0,0 l/m 4,3 m/s (3 Bft) W-SW22.5 250 0 min 0 lux 4,8 C 0,6 C
10.12.2009 17:55 6,5 C 7,1 C 5,6 C 89 % 1020 hPa 0,0 l/m 7,5 m/s (4 Bft) W-SW22.5 245 0 min 0 lux 4,8 C -3,5 C
10.12.2009 18:00 6,5 C 7,1 C 5,6 C 89 % 1020 hPa 0,0 l/m 8,1 m/s (5 Bft) W45 265 0 min 0 lux 4,8 C -4,1 C
10.12.2009 18:06 6,5 C 7,1 C 5,5 C 89 % 1020 hPa 0,0 l/m 9,3 m/s (5 Bft) W45 265 0 min 0 lux 4,8 C -5,0 C
10.12.2009 18:11 6,5 C 7,1 C 5,6 C 89 % 1020 hPa 0,0 l/m 9,5 m/s (5 Bft) W-SW22.5 250 0 min 0 lux 4,8 C -5,2 C
10.12.2009 18:16 6,5 C 7,1 C 5,6 C 89 % 1021 hPa 0,0 l/m 6,5 m/s (4 Bft) W67.5 270 0 min 0 lux 4,8 C -2,4 C
10.12.2009 18:21 6,5 C 7,1 C 5,6 C 90 % 1021 hPa 0,0 l/m 5,9 m/s (4 Bft) W-SW45 255 0 min 0 lux 5,0 C -1,7 C
10.12.2009 18:26 6,5 C 7,0 C 5,5 C 90 % 1021 hPa 0,0 l/m 3,3 m/s (2 Bft) W-SW22.5 250 0 min 0 lux 5,0 C 2,5 C
10.12.2009 18:31 6,4 C 7,0 C 5,6 C 91 % 1021 hPa 0,0 l/m 4,6 m/s (3 Bft) W-SW45 240 0 min 0 lux 5,0 C 0,1 C
10.12.2009 18:36 6,4 C 7,0 C 5,5 C 91 % 1021 hPa 0,0 l/m 4,8 m/s (3 Bft) W22.5 265 0 min 0 lux 5,0 C -0,2 C
10.12.2009 18:41 6,4 C 7,0 C 5,5 C 91 % 1021 hPa 0,0 l/m 6,6 m/s (4 Bft) W-SW22.5 250 0 min 0 lux 5,0 C -2,6 C
10.12.2009 18:46 6,4 C 7,0 C 5,5 C 91 % 1021 hPa 0,0 l/m 6,6 m/s (4 Bft) W-SW22.5 250 0 min 0 lux 5,0 C -2,6 C
10.12.2009 18:51 6,4 C 7,0 C 5,5 C 91 % 1021 hPa 0,0 l/m 4,9 m/s (3 Bft) W-SW22.5 250 0 min 0 lux 5,0 C -0,4 C
10.12.2009 18:56 6,4 C 7,0 C 5,5 C 91 % 1021 hPa 0,0 l/m 6,2 m/s (4 Bft) W-SW45 240 0 min 0 lux 5,0 C -2,2 C
10.12.2009 19:01 6,4 C 7,0 C 5,5 C 91 % 1021 hPa 0,0 l/m 4,9 m/s (3 Bft) W22.5 260 0 min 0 lux 5,0 C -0,5 C
10.12.2009 19:06 6,4 C 7,0 C 5,5 C 91 % 1021 hPa 0,4 l/m 4,6 m/s (3 Bft) W-SW45 255 0 min 0 lux 5,0 C 0,0 C
10.12.2009 19:11 6,4 C 7,0 C 5,5 C 91 % 1021 hPa 0,0 l/m 6,1 m/s (4 Bft) W-SW67.5 250 0 min 0 lux 5,0 C -2,0 C
10.12.2009 19:16 6,4 C 7,0 C 5,5 C 91 % 1021 hPa 0,0 l/m 6,8 m/s (4 Bft) W-SW45 250 0 min 0 lux 5,0 C -2,8 C
10.12.2009 19:21 6,4 C 7,0 C 5,5 C 91 % 1021 hPa 0,0 l/m 5,6 m/s (4 Bft) W-SW22.5 250 0 min 0 lux 5,0 C -1,4 C
10.12.2009 19:26 6,4 C 7,0 C 5,5 C 91 % 1021 hPa 0,0 l/m 7,4 m/s (4 Bft) W45 260 0 min 0 lux 5,0 C -3,5 C
10.12.2009 19:31 6,3 C 7,0 C 5,5 C 91 % 1021 hPa 0,0 l/m 5,1 m/s (3 Bft) W22.5 260 0 min 0 lux 4,9 C -0,9 C
10.12.2009 19:36 6,3 C 6,9 C 5,5 C 92 % 1021 hPa 0,0 l/m 5,1 m/s (3 Bft) W-SW45 250 0 min 0 lux 5,1 C -0,8 C
10.12.2009 19:41 6,3 C 6,9 C 5,5 C 92 % 1021 hPa 0,0 l/m 5,5 m/s (3 Bft) W-SW45 245 0 min 0 lux 5,1 C -1,4 C
10.12.2009 19:46 6,2 C 6,8 C 5,5 C 92 % 1021 hPa 0,0 l/m 4,0 m/s (3 Bft) W-SW22.5 250 0 min 0 lux 5,0 C 0,8 C
10.12.2009 19:51 6,2 C 6,8 C 5,5 C 92 % 1021 hPa 0,0 l/m 4,5 m/s (3 Bft) W-SW22.5 250 0 min 0 lux 5,0 C -0,0 C
10.12.2009 19:56 6,2 C 6,8 C 5,5 C 92 % 1021 hPa 0,0 l/m 3,8 m/s (3 Bft) W22.5 260 0 min 0 lux 5,0 C 1,2 C
10.12.2009 20:01 6,2 C 6,8 C 5,4 C 92 % 1021 hPa 0,0 l/m 3,6 m/s (3 Bft) W-SW67.5 250 0 min 0 lux 5,0 C 1,7 C
10.12.2009 20:06 6,2 C 6,8 C 5,5 C 92 % 1021 hPa 0,0 l/m 3,4 m/s (2 Bft) W-SW45 255 0 min 0 lux 5,0 C 2,0 C
10.12.2009 20:10 6,2 C 6,8 C 5,4 C 92 % 1021 hPa 0,0 l/m 3,4 m/s (2 Bft) W-SW45 250 0 min 0 lux 5,0 C 2,1 C
10.12.2009 20:15 6,2 C 6,9 C 5,5 C 92 % 1021 hPa 0,0 l/m 3,8 m/s (3 Bft) W45 260 0 min 0 lux 5,0 C 1,3 C
10.12.2009 20:20 6,3 C 6,8 C 5,4 C 92 % 1021 hPa 0,0 l/m 6,7 m/s (4 Bft) W-SW45 250 0 min 0 lux 5,1 C -2,9 C
10.12.2009 20:25 6,2 C 6,8 C 5,4 C 92 % 1021 hPa 0,0 l/m 3,8 m/s (3 Bft) W45 260 0 min 0 lux 5,0 C 1,2 C
10.12.2009 20:30 6,2 C 6,8 C 5,4 C 93 % 1021 hPa 0,0 l/m 7,3 m/s (4 Bft) W22.5 260 0 min 0 lux 5,2 C -3,7 C
10.12.2009 20:35 6,2 C 6,8 C 5,4 C 93 % 1021 hPa 0,0 l/m 3,9 m/s (3 Bft) W-SW22.5 245 0 min 0 lux 5,2 C 1,0 C
10.12.2009 20:40 6,2 C 6,8 C 5,5 C 93 % 1021 hPa 0,0 l/m 4,0 m/s (3 Bft) SW22.5 235 0 min 0 lux 5,2 C 0,8 C
10.12.2009 20:45 6,1 C 6,8 C 5,5 C 94 % 1021 hPa 0,0 l/m 4,9 m/s (3 Bft) W-SW22.5 240 0 min 0 lux 5,2 C -0,8 C
10.12.2009 20:50 6,1 C 6,7 C 5,4 C 94 % 1021 hPa 0,0 l/m 3,9 m/s (3 Bft) W-SW22.5 255 0 min 0 lux 5,2 C 0,9 C
10.12.2009 20:55 6,1 C 6,7 C 5,5 C 94 % 1021 hPa 0,0 l/m 3,0 m/s (2 Bft) W-SW22.5 245 0 min 0 lux 5,2 C 2,8 C
10.12.2009 21:00 6,0 C 6,7 C 5,4 C 95 % 1021 hPa 0,0 l/m 3,6 m/s (3 Bft) W-SW22.5 240 0 min 0 lux 5,3 C 1,3 C
10.12.2009 21:05 6,0 C 6,7 C 5,4 C 95 % 1021 hPa 0,0 l/m 4,4 m/s (3 Bft) W-SW22.5 245 0 min 0 lux 5,3 C -0,1 C
10.12.2009 21:10 6,0 C 6,7 C 5,4 C 95 % 1021 hPa 0,0 l/m 3,0 m/s (2 Bft) W-SW22.5 245 0 min 0 lux 5,3 C 2,6 C
10.12.2009 21:15 6,0 C 6,7 C 5,4 C 95 % 1021 hPa 0,4 l/m 2,6 m/s (2 Bft) W-SW22.5 240 0 min 0 lux 5,3 C 3,6 C
10.12.2009 21:20 6,0 C 6,6 C 5,5 C 95 % 1021 hPa 0,0 l/m 3,1 m/s (2 Bft) W-SW22.5 250 0 min 0 lux 5,3 C 2,3 C
10.12.2009 21:25 6,0 C 6,6 C 5,4 C 95 % 1021 hPa 0,0 l/m 3,7 m/s (3 Bft) W-SW22.5 240 0 min 0 lux 5,3 C 1,2 C
10.12.2009 21:30 6,0 C 6,6 C 5,5 C 96 % 1021 hPa 0,4 l/m 3,3 m/s (2 Bft) W-SW22.5 255 0 min 0 lux 5,4 C 1,9 C
10.12.2009 21:35 6,0 C 6,7 C 5,4 C 96 % 1021 hPa 0,0 l/m 3,2 m/s (2 Bft) W-SW22.5 245 0 min 0 lux 5,4 C 2,1 C
10.12.2009 21:40 6,0 C 6,7 C 5,4 C 96 % 1021 hPa 0,0 l/m 2,8 m/s (2 Bft) W-SW22.5 255 0 min 0 lux 5,4 C 3,2 C
10.12.2009 21:45 6,0 C 6,7 C 5,4 C 96 % 1021 hPa 0,0 l/m 3,1 m/s (2 Bft) W-SW22.5 250 0 min 0 lux 5,4 C 2,5 C
10.12.2009 21:50 6,0 C 6,7 C 5,5 C 96 % 1021 hPa 0,0 l/m 2,6 m/s (2 Bft) W-SW22.5 245 0 min 0 lux 5,4 C 3,6 C
10.12.2009 21:55 6,0 C 6,7 C 5,5 C 96 % 1021 hPa 0,0 l/m 2,7 m/s (2 Bft) W-SW22.5 240 0 min 0 lux 5,4 C 3,5 C
10.12.2009 22:00 6,0 C 6,7 C 5,5 C 96 % 1021 hPa 0,0 l/m 3,1 m/s (2 Bft) W-SW22.5 250 0 min 0 lux 5,4 C 2,3 C
10.12.2009 22:05 6,0 C 6,7 C 5,5 C 96 % 1021 hPa 0,0 l/m 3,0 m/s (2 Bft) W-SW22.5 245 0 min 0 lux 5,4 C 2,7 C
10.12.2009 22:10 6,0 C 6,7 C 5,5 C 96 % 1021 hPa 0,0 l/m 2,5 m/s (2 Bft) W22.5 260 0 min 0 lux 5,4 C 3,9 C
10.12.2009 22:15 6,0 C 6,7 C 5,5 C 97 % 1021 hPa 0,4 l/m 2,3 m/s (2 Bft) W-SW22.5 250 0 min 0 lux 5,6 C 4,4 C
10.12.2009 22:20 6,0 C 6,7 C 5,5 C 97 % 1021 hPa 0,0 l/m 2,3 m/s (2 Bft) W-SW45 245 0 min 0 lux 5,6 C 4,4 C
10.12.2009 22:25 6,0 C 6,7 C 5,5 C 96 % 1021 hPa 0,0 l/m 2,4 m/s (2 Bft) W-SW22.5 245 0 min 0 lux 5,4 C 4,1 C
10.12.2009 22:30 6,0 C 6,7 C 5,5 C 97 % 1021 hPa 0,0 l/m 3,0 m/s (2 Bft) W-SW45 250 0 min 0 lux 5,6 C 2,7 C
10.12.2009 22:35 6,0 C 6,7 C 5,5 C 97 % 1021 hPa 0,0 l/m 3,2 m/s (2 Bft) W-SW22.5 250 0 min 0 lux 5,6 C 2,1 C
10.12.2009 22:40 6,0 C 6,7 C 5,5 C 96 % 1021 hPa 0,0 l/m 4,1 m/s (3 Bft) W-SW67.5 240 0 min 0 lux 5,4 C 0,4 C
10.12.2009 22:45 6,1 C 6,7 C 5,5 C 96 % 1021 hPa 0,4 l/m 5,7 m/s (4 Bft) W-SW45 250 0 min 0 lux 5,5 C -2,0 C
10.12.2009 22:50 6,1 C 6,7 C 5,5 C 96 % 1021 hPa 0,0 l/m 4,4 m/s (3 Bft) W-SW45 245 0 min 0 lux 5,5 C 0,0 C
10.12.2009 22:55 6,1 C 6,7 C 5,5 C 95 % 1021 hPa 0,0 l/m 4,0 m/s (3 Bft) W-SW45 245 0 min 0 lux 5,4 C 0,7 C
10.12.2009 23:00 6,1 C 6,7 C 5,5 C 95 % 1021 hPa 0,0 l/m 3,6 m/s (3 Bft) W-SW22.5 250 0 min 0 lux 5,4 C 1,4 C
10.12.2009 23:05 6,1 C 6,7 C 5,5 C 96 % 1021 hPa 0,0 l/m 2,3 m/s (2 Bft) W-SW22.5 250 0 min 0 lux 5,5 C 4,6 C
10.12.2009 23:10 6,1 C 6,7 C 5,5 C 96 % 1021 hPa 0,0 l/m 2,9 m/s (2 Bft) W-SW22.5 240 0 min 0 lux 5,5 C 3,0 C
10.12.2009 23:15 6,1 C 6,7 C 5,5 C 96 % 1021 hPa 0,0 l/m 2,8 m/s (2 Bft) W-SW22.5 240 0 min 0 lux 5,5 C 3,2 C
10.12.2009 23:20 6,2 C 6,7 C 5,5 C 95 % 1021 hPa 0,0 l/m 4,9 m/s (3 Bft) W-SW45 255 0 min 0 lux 5,5 C -0,6 C
10.12.2009 23:25 6,2 C 6,8 C 5,5 C 95 % 1021 hPa 0,0 l/m 3,3 m/s (2 Bft) W-SW22.5 255 0 min 0 lux 5,5 C 2,3 C
10.12.2009 23:30 6,2 C 6,8 C 5,5 C 95 % 1021 hPa 0,0 l/m 2,8 m/s (2 Bft) W-SW22.5 245 0 min 0 lux 5,5 C 3,5 C
10.12.2009 23:35 6,2 C 6,8 C 5,5 C 95 % 1021 hPa 0,4 l/m 3,6 m/s (3 Bft) W-SW22.5 250 0 min 0 lux 5,5 C 1,6 C
10.12.2009 23:40 6,2 C 6,8 C 5,5 C 95 % 1021 hPa 0,0 l/m 2,8 m/s (2 Bft) W-SW22.5 245 0 min 0 lux 5,5 C 3,3 C
10.12.2009 23:45 6,2 C 6,8 C 5,5 C 96 % 1021 hPa 0,4 l/m 3,1 m/s (2 Bft) W-SW22.5 250 0 min 0 lux 5,6 C 2,7 C
10.12.2009 23:50 6,2 C 6,8 C 5,6 C 96 % 1021 hPa 0,4 l/m 2,3 m/s (2 Bft) W-SW22.5 245 0 min 0 lux 5,6 C 4,8 C
10.12.2009 23:55 6,2 C 6,8 C 5,6 C 96 % 1021 hPa 0,0 l/m 2,1 m/s (2 Bft) W-SW22.5 240 0 min 0 lux 5,6 C 5,1 C
_ Min-Zeit 03:40 03:45 03:51 17:50 08:55 - 00:25 - - - - 03:40 18:11
Minimum _ 4,5 C 5,5 C 4,5 C 89 % 1019 hPa - 0,0 m/s (0 Bft) - - - - 4,1 C -5,2 C
_ Max-Zeit 12:21 12:21 12:30 06:15 00:00 04:21 15:15 - - 00:00 12:10 11:10 09:35
Maximum _ 8,6 C 9,0 C 7,2 C 98 % 1025 hPa 1,1 l/m 9,8 m/s
W (5 Bft)
- - 0 min 13,7 klux 7,5 C 6,4 C
Durchschnitt _ 6,2 C 6,8 C 5,5 C 95 % 1021 hPa #22,0 l/m 3,3 m/s (2 Bft) W-SW - #0 min. 1,16 klux 5,4 C 2,2 C